Voltar ao catálogo

STARLINK-3295

AtivoComunicaçõesVLEO
NORAD 50840·PAYLOAD·🇺🇸 United States

Lançado Jan 6, 2022 de Cape Canaveral Space Force Station

Loading…

Próximas Passagens (próximas 24 horas)

TLE

AtualizadoSource: CelesTrak SupGP

Época: Sep 15, 2026, 01:28 UTC

1 50840C 22001AP  26258.06159722 -.00033965  00000+0 -10305-2 0  2583
2 50840  53.1585  35.3169 0001178  86.1926 142.0161 15.33569071    18

Acompanhe STARLINK-3295 em tempo real com AllMySat

Download on the App Store